ARIANE 1 DEB

Satellite information

Favourite Embed

Satellite Type and Status

DEBRISIN ORBIT

Key statistics

Satellite ARIANE 1 DEB at a glance.

Uptime

14440

Days in orbit

Revolutions

≈ 14.8

Per day

Orbit

SSO

Sun Synchronous Orbit

Inclination

99.1

Latest

Satellite identification and parameters

Extended collection of information and parameters for ARIANE 1 DEB.

Object identification

Identified? True

Debris? True

Object name: ARIANE 1 DEB

International designator: 1986-019FQ

Object number (NORAD): 17429

Object ID (CCSDS): 17429

Country: FRANCE (FR)

Current information (Y/N): Y

RCS size: SMALL

Orbital parameters

Period: 97.472 minutes

Inclination: 99.0689 deg

SMA: 7015.842 km

Apoapsis: 666.953 km

Periapsis: 608.462 km

RAAN: 120.9526 deg

Eccentricy: 0.00416853

Argument of periapsis: 108.8143 deg

Mean anomaly: 251.7593 deg

Mean motion: 14.77348777 rev/day

Mean motion (dot): 0.00012691 rev/day2

B* drag term: 0.0017666305 1/REarth

Two-line elements (TLE)

Creation date: Sept. 4, 2025, 10:13 a.m.

Reference frame: TEME

Reference center: EARTH

Epoch: Sept. 4, 2025, 3:50 a.m. UTC

TLE line 0: 0 ARIANE 1 DEB

TLE line 1: 1 17429U 86019FQ 25247.15978512 .00012691 00000-0 17666-2 0 9992

TLE line 2: 2 17429 99.0689 120.9526 0041685 108.8143 251.7593 14.77348777 29705

Live tracking on map

Real-time ground track for satellite ARIANE 1 DEB.

In-orbit conjunctions

A list of the most updated potential collisions computed for object ARIANE 1 DEB.

Target Orbit TCA Probability of collision Miss distance Type
CZ-6A DEB LEO 2025-02-17 01:53:26 0.0002175483 475.0 (m) DEBRIS
CZ-6A DEB LEO 2025-01-25 14:48:40 0.000324117 493.0 (m) DEBRIS
CZ-6A DEB LEO 2025-01-02 04:36:00 0.0001306559 125.0 (m) DEBRIS
AEROCUBE 2 SSO 2024-12-05 15:59:21 0.0001018623 574.0 (m) PAYLOAD

Associated space launch

SPOT 1 is a French Earth observation satellite. Viking is Sweden's first satellite.

ARIANE 1 DEB was lifted into orbit during the mission ‘Ariane 1 | SPOT 1 & Viking’, on board a Ariane 1 space rocket.

The launch took place on Feb. 22, 1986, 1:44 a.m. from Ariane Launch Area 1 (ELV).

For more information about the launch, click the button.

Launch to space Ariane 1 | SPOT 1 & Viking
Ariane 1 | SPOT 1 & Viking

Agency: N/A

Status: Launch Successful

Launch date: Feb. 22, 1986, 1:44 a.m. UTC

Rocket: Ariane 1

Launch pad: Ariane Launch Area 1 (ELV)

Location: Guiana Space Centre, French Guiana

...

Latest news about this satellite

There are no fresh news available about this satellite. Check back as we update our databases every day.


Newsletter sign-up

Weekly statistics, charts and insights to help you stay on top of the space industry.